map of FOR home
Great Circle Mapper logo
FOR - Airport
Location
City:  Fortaleza, Ceará, Brazil
Name:Pinto Martins International Airport
ICAO:SBFZ
IATA:FOR

Details
Type:Airport (Aerodrome, Airfield)
Use:Public/Civil, Military, International (customs port of entry)
Latitude:3°46'35"S (-3.776282)
Longitude:38°31'57"W (-38.532555)
Datum:WGS 1984
Elevation:82 ft (25 m)
Variation:21.18°W (WMM2015 magnetic declination)
0.04° annual change
Runways:1
Longest:8350 × 148 ft (2545 × 45 m), paved

Time
Time Zone:UTC-3
Local Time:

Weather
METAR:SBFZ 022300Z 08004KT 9999 FEW020 28/24 Q1012
TAF:SBFZ 022100Z 0300/0324 09008KT 8000 SCT020 TN26/0308Z TX31/0316Z
BECMG 0306/0308 13008KTKT
BECMG 0314/0316 09008KT SCT023
RMK PBO

Related Locations
Nearby:
Farthest:WAKG: 12184 mi / 19609 km
Ewer [Ewer Airport], PP, ID

Find:

   beyond  
but within

Other Information
Maps:
NOTAMs:
Links:
Sources:

  
flag of Brazil
flag of Ceará
flag of Fortaleza
  

Sectional Chart

Flight Planning
at skyvector.com

Satellite Image

Google Maps Satellite view

 

Copyright © 2004-2016 Karl L. Swartz. All rights reserved.
The Great Circle Mapper name and logo are trademarks of the Great Circle Mapper.
All other trademarks mentioned herein belong to their respective owners.
Please see credits for attibutions and further copyright information.

  Follow gcmap on Facebook Follow gcmap on Twitter Follow gcmap on Google+ GCmap on LinkedIn

hCard Microformat

Geo Microformat